Location: Newark
(46.5125°N, 5.8403°E)
Time: 01:15:04
(UTC+00:00)

Envisat - Visible Passes

Search period start: 20 September 2019 00:00
Search period end: 30 September 2019 00:00
Orbit: 764 x 766 km, 98.1° (Epoch: 19 September)

Date Brightness Start Highest point End Pass type
(mag) Time Alt. Az. Time Alt. Az. Time Alt. Az.
20 Sep 6.3 19:28:54 10° W 19:30:02 11° W 19:31:11 10° WNW visible
21 Sep 5.6 18:48:48 10° SW 18:52:48 23° W 18:56:50 10° NW visible
22 Sep 4.2 18:10:54 10° S 18:15:47 48° W 18:20:43 10° NNW visible
23 Sep 6.1 19:16:05 10° WSW 19:18:37 14° W 19:21:10 10° WNW visible
24 Sep 5.2 18:37:05 10° SSW 18:41:27 29° W 18:45:51 10° NW visible
25 Sep 3.7 17:59:28 10° S 18:04:29 60° W 18:09:32 10° NNW visible
26 Sep 5.9 19:03:55 10° SW 19:07:14 17° W 19:10:32 10° NW visible
27 Sep 4.8 18:25:29 10° SSW 18:30:07 35° W 18:34:47 10° NNW visible
28 Sep 3.3 17:48:08 10° S 17:53:12 75° WSW 17:58:19 10° NNW visible
29 Sep 5.6 18:52:00 10° SW 18:55:50 21° W 18:59:42 10° NW visible
